Year,Month,Day,Hour,Minute,Value (Times are PST for temperature in C)
2013,05,01,00,00,7.10
2013,05,01,00,01,7.00
2013,05,01,00,02,7.00
2013,05,01,00,03,7.00
2013,05,01,00,04,7.00
2013,05,01,00,05,7.00
2013,05,01,00,06,6.90
2013,05,01,00,07,6.90
2013,05,01,00,08,6.90
2013,05,01,00,09,6.90
2013,05,01,00,10,6.90
2013,05,01,00,11,6.80
2013,05,01,00,12,6.80
2013,05,01,00,13,6.80
2013,05,01,00,14,6.80
2013,05,01,00,15,6.80
2013,05,01,00,16,6.80
2013,05,01,00,17,6.80
2013,05,01,00,18,6.80
2013,05,01,00,19,6.80
2013,05,01,00,20,6.80
2013,05,01,00,21,6.80
2013,05,01,00,22,6.80
2013,05,01,00,23,6.70
2013,05,01,00,24,6.70
2013,05,01,00,25,6.70
2013,05,01,00,26,6.70
2013,05,01,00,27,6.70
2013,05,01,00,28,6.60
2013,05,01,00,29,6.60
2013,05,01,00,30,6.60
2013,05,01,00,31,6.60
2013,05,01,00,32,6.60
2013,05,01,00,33,6.60
2013,05,01,00,34,6.60
2013,05,01,00,35,6.60
2013,05,01,00,36,6.50
2013,05,01,00,37,6.40
2013,05,01,00,38,6.40
2013,05,01,00,39,6.40
2013,05,01,00,40,6.40
2013,05,01,00,41,6.30
2013,05,01,00,42,6.30
2013,05,01,00,43,6.30
2013,05,01,00,44,6.20
2013,05,01,00,45,6.20
2013,05,01,00,46,6.20
2013,05,01,00,47,6.20
2013,05,01,00,48,6.20
2013,05,01,00,49,6.20
2013,05,01,00,50,6.20
2013,05,01,00,51,6.10
2013,05,01,00,52,6.10
2013,05,01,00,53,6.10
2013,05,01,00,54,6.10
2013,05,01,00,55,6.10
2013,05,01,00,56,6.00
2013,05,01,00,57,6.00
2013,05,01,00,58,6.00
2013,05,01,00,59,5.90
2013,05,01,01,00,5.90
2013,05,01,01,01,5.90
2013,05,01,01,02,5.90
2013,05,01,01,03,5.80
2013,05,01,01,04,5.80
2013,05,01,01,05,5.80
2013,05,01,01,06,5.80
2013,05,01,01,07,5.80
2013,05,01,01,08,5.80
2013,05,01,01,09,5.80
2013,05,01,01,10,5.70
2013,05,01,01,11,5.70
2013,05,01,01,12,5.70
2013,05,01,01,13,5.70
2013,05,01,01,14,5.70
2013,05,01,01,15,5.70
2013,05,01,01,16,5.70
2013,05,01,01,17,5.70
2013,05,01,01,18,5.70
2013,05,01,01,19,5.70
2013,05,01,01,20,5.70
2013,05,01,01,21,5.70
2013,05,01,01,22,5.70
2013,05,01,01,23,5.70
2013,05,01,01,24,5.60
2013,05,01,01,25,5.60
2013,05,01,01,26,5.60
2013,05,01,01,27,5.60
2013,05,01,01,28,5.60
2013,05,01,01,29,5.60
2013,05,01,01,30,5.60
2013,05,01,01,31,5.50
2013,05,01,01,32,5.50
2013,05,01,01,33,5.50
2013,05,01,01,34,5.50
2013,05,01,01,35,5.50
2013,05,01,01,36,5.50
2013,05,01,01,37,5.50
2013,05,01,01,38,5.40
2013,05,01,01,39,5.40
2013,05,01,01,40,5.40
2013,05,01,01,41,5.40
2013,05,01,01,42,5.40
2013,05,01,01,43,5.40
2013,05,01,01,44,5.40
2013,05,01,01,45,5.40
2013,05,01,01,46,5.40
2013,05,01,01,47,5.40
2013,05,01,01,48,5.40
2013,05,01,01,49,5.40
2013,05,01,01,50,5.30
2013,05,01,01,51,5.30
2013,05,01,01,52,5.30
2013,05,01,01,53,5.30
2013,05,01,01,54,5.30
2013,05,01,01,55,5.30
2013,05,01,01,56,5.30
2013,05,01,01,57,5.30
2013,05,01,01,58,5.30
2013,05,01,01,59,5.30
2013,05,01,02,00,5.30
2013,05,01,02,01,5.30
2013,05,01,02,02,5.30
2013,05,01,02,03,5.20
2013,05,01,02,04,5.20
2013,05,01,02,05,5.20
2013,05,01,02,06,5.20
2013,05,01,02,07,5.20
2013,05,01,02,08,5.10
2013,05,01,02,09,5.10
2013,05,01,02,10,5.10
2013,05,01,02,11,5.10
2013,05,01,02,12,5.10
2013,05,01,02,13,5.10
2013,05,01,02,14,5.10
2013,05,01,02,15,5.10
2013,05,01,02,16,5.00
2013,05,01,02,17,4.90
2013,05,01,02,18,4.90
2013,05,01,02,19,4.90
2013,05,01,02,20,4.90
2013,05,01,02,21,4.90
2013,05,01,02,22,4.90
2013,05,01,02,23,4.90
2013,05,01,02,24,4.90
2013,05,01,02,25,4.90
2013,05,01,02,26,4.90
2013,05,01,02,27,4.90
2013,05,01,02,28,4.90
2013,05,01,02,29,4.90
2013,05,01,02,30,4.90
2013,05,01,02,31,4.90
2013,05,01,02,32,4.90
2013,05,01,02,33,4.90
2013,05,01,02,34,4.80
2013,05,01,02,35,4.80
2013,05,01,02,36,4.80
2013,05,01,02,37,4.80
2013,05,01,02,38,4.70
2013,05,01,02,39,4.70
2013,05,01,02,40,4.70
2013,05,01,02,41,4.70
2013,05,01,02,42,4.70
2013,05,01,02,43,4.70
2013,05,01,02,44,4.70
2013,05,01,02,45,4.70
2013,05,01,02,46,4.70
2013,05,01,02,47,4.60
2013,05,01,02,48,4.60
2013,05,01,02,49,4.60
2013,05,01,02,50,4.60
2013,05,01,02,51,4.60
2013,05,01,02,52,4.60
2013,05,01,02,53,4.60
2013,05,01,02,54,4.60
2013,05,01,02,55,4.60
2013,05,01,02,56,4.50
2013,05,01,02,57,4.50
2013,05,01,02,58,4.50
2013,05,01,02,59,4.50
2013,05,01,03,00,4.50
2013,05,01,03,01,4.50
2013,05,01,03,02,4.50
2013,05,01,03,03,4.50
2013,05,01,03,04,4.40
2013,05,01,03,05,4.40
2013,05,01,03,06,4.40
2013,05,01,03,07,4.40
2013,05,01,03,08,4.40
2013,05,01,03,09,4.30
2013,05,01,03,10,4.30
2013,05,01,03,11,4.30
2013,05,01,03,12,4.30
2013,05,01,03,13,4.20
2013,05,01,03,14,4.20
2013,05,01,03,15,4.20
2013,05,01,03,16,4.20
2013,05,01,03,17,4.20
2013,05,01,03,18,4.20
2013,05,01,03,19,4.20
2013,05,01,03,20,4.20
2013,05,01,03,21,4.10
2013,05,01,03,22,4.10
2013,05,01,03,23,4.00
2013,05,01,03,24,4.00
2013,05,01,03,25,4.00
2013,05,01,03,26,3.90
2013,05,01,03,27,3.90
2013,05,01,03,28,3.80
2013,05,01,03,29,3.80
2013,05,01,03,30,3.80
2013,05,01,03,31,3.80
2013,05,01,03,32,3.80
2013,05,01,03,33,3.80
2013,05,01,03,34,3.70
2013,05,01,03,35,3.70
2013,05,01,03,36,3.70
2013,05,01,03,37,3.70
2013,05,01,03,38,3.70
2013,05,01,03,39,3.60
2013,05,01,03,40,3.60
2013,05,01,03,41,3.60
2013,05,01,03,42,3.60
2013,05,01,03,43,3.60
2013,05,01,03,44,3.60
2013,05,01,03,45,3.50
2013,05,01,03,46,3.50
2013,05,01,03,47,3.50
2013,05,01,03,48,3.40
2013,05,01,03,49,3.40
2013,05,01,03,50,3.40
2013,05,01,03,51,3.30
2013,05,01,03,52,3.30
2013,05,01,03,53,3.30
2013,05,01,03,54,3.30
2013,05,01,03,55,3.20
2013,05,01,03,56,3.10
2013,05,01,03,57,3.10
2013,05,01,03,58,3.10
2013,05,01,03,59,3.00
2013,05,01,04,00,2.90
2013,05,01,04,01,2.90
2013,05,01,04,02,3.00
2013,05,01,04,03,3.10
2013,05,01,04,04,3.10
2013,05,01,04,05,3.10
2013,05,01,04,06,3.10
2013,05,01,04,07,3.00
2013,05,01,04,08,3.00
2013,05,01,04,09,3.00
2013,05,01,04,10,3.00
2013,05,01,04,11,2.90
2013,05,01,04,12,2.90
2013,05,01,04,13,3.00
2013,05,01,04,14,3.10
2013,05,01,04,15,3.10
2013,05,01,04,16,3.10
2013,05,01,04,17,3.20
2013,05,01,04,18,3.20
2013,05,01,04,19,3.20
2013,05,01,04,20,3.20
2013,05,01,04,21,3.20
2013,05,01,04,22,3.30
2013,05,01,04,23,3.30
2013,05,01,04,24,3.30
2013,05,01,04,25,3.30
2013,05,01,04,26,3.30
2013,05,01,04,27,3.30
2013,05,01,04,28,3.30
2013,05,01,04,29,3.30
2013,05,01,04,30,3.30
2013,05,01,04,31,3.30
2013,05,01,04,32,3.30
2013,05,01,04,33,3.30
2013,05,01,04,34,3.30
2013,05,01,04,35,3.30
2013,05,01,04,36,3.30
2013,05,01,04,37,3.30
2013,05,01,04,38,3.30
2013,05,01,04,39,3.20
2013,05,01,04,40,3.20
2013,05,01,04,41,3.20
2013,05,01,04,42,3.20
2013,05,01,04,43,3.20
2013,05,01,04,44,3.20
2013,05,01,04,45,3.20
2013,05,01,04,46,3.10
2013,05,01,04,47,3.10
2013,05,01,04,48,3.10
2013,05,01,04,49,3.10
2013,05,01,04,50,3.00
2013,05,01,04,51,2.90
2013,05,01,04,52,2.90
2013,05,01,04,53,2.90
2013,05,01,04,54,2.90
2013,05,01,04,55,2.90
2013,05,01,04,56,2.90
2013,05,01,04,57,2.80
2013,05,01,04,58,2.80
2013,05,01,04,59,2.80
2013,05,01,05,00,2.80
2013,05,01,05,01,2.70
2013,05,01,05,02,2.70
2013,05,01,05,03,2.70
2013,05,01,05,04,2.70
2013,05,01,05,05,2.70
2013,05,01,05,06,2.70
2013,05,01,05,07,2.70
2013,05,01,05,08,2.70
2013,05,01,05,09,2.70
2013,05,01,05,10,2.70
2013,05,01,05,11,2.70
2013,05,01,05,12,2.70
2013,05,01,05,13,2.70
2013,05,01,05,14,2.70
2013,05,01,05,15,2.60
2013,05,01,05,16,2.60
2013,05,01,05,17,2.60
2013,05,01,05,18,2.60
2013,05,01,05,19,2.60
2013,05,01,05,20,2.60
2013,05,01,05,21,2.60
2013,05,01,05,22,2.60
2013,05,01,05,23,2.60
2013,05,01,05,24,2.50
2013,05,01,05,25,2.50
2013,05,01,05,26,2.50
2013,05,01,05,27,2.50
2013,05,01,05,28,2.50
2013,05,01,05,29,2.50
2013,05,01,05,30,2.60
2013,05,01,05,31,2.60
2013,05,01,05,32,2.50
2013,05,01,05,33,2.50
2013,05,01,05,34,2.50
2013,05,01,05,35,2.50
2013,05,01,05,36,2.50
2013,05,01,05,37,2.50
2013,05,01,05,38,2.50
2013,05,01,05,39,2.40
2013,05,01,05,40,2.40
2013,05,01,05,41,2.40
2013,05,01,05,42,2.40
2013,05,01,05,43,2.40
2013,05,01,05,44,2.30
2013,05,01,05,45,2.30
2013,05,01,05,46,2.30
2013,05,01,05,47,2.30
2013,05,01,05,48,2.20
2013,05,01,05,49,2.20
2013,05,01,05,50,2.20
2013,05,01,05,51,2.20
2013,05,01,05,52,2.20
2013,05,01,05,53,2.20
2013,05,01,05,54,2.20
2013,05,01,05,55,2.20
2013,05,01,05,56,2.20
2013,05,01,05,57,2.20
2013,05,01,05,58,2.10
2013,05,01,05,59,2.10
2013,05,01,06,00,2.10
2013,05,01,06,01,2.10
2013,05,01,06,02,2.10
2013,05,01,06,03,2.10
2013,05,01,06,04,2.10
2013,05,01,06,05,2.10
2013,05,01,06,06,2.10
2013,05,01,06,07,2.10
2013,05,01,06,08,2.10
2013,05,01,06,09,2.10
2013,05,01,06,10,2.10
2013,05,01,06,11,2.10
2013,05,01,06,12,2.10
2013,05,01,06,13,2.10
2013,05,01,06,14,2.10
2013,05,01,06,15,2.20
2013,05,01,06,16,2.20
2013,05,01,06,17,2.20
2013,05,01,06,18,2.20
2013,05,01,06,19,2.20
2013,05,01,06,20,2.20
2013,05,01,06,21,2.20
2013,05,01,06,22,2.20
2013,05,01,06,23,2.20
2013,05,01,06,24,2.20
2013,05,01,06,25,2.20
2013,05,01,06,26,2.20
2013,05,01,06,27,2.20
2013,05,01,06,28,2.20
2013,05,01,06,29,2.20
2013,05,01,06,30,2.20
2013,05,01,06,31,2.30
2013,05,01,06,32,2.30
2013,05,01,06,33,2.40
2013,05,01,06,34,2.40
2013,05,01,06,35,2.50
2013,05,01,06,36,2.50
2013,05,01,06,37,2.50
2013,05,01,06,38,2.50
2013,05,01,06,39,2.50
2013,05,01,06,40,2.50
2013,05,01,06,41,2.60
2013,05,01,06,42,2.60
2013,05,01,06,43,2.60
2013,05,01,06,44,2.60
2013,05,01,06,45,2.70
2013,05,01,06,46,2.70
2013,05,01,06,47,2.70
2013,05,01,06,48,2.80
2013,05,01,06,49,2.80
2013,05,01,06,50,2.80
2013,05,01,06,51,2.80
2013,05,01,06,52,2.80
2013,05,01,06,53,2.90
2013,05,01,06,54,2.90
2013,05,01,06,55,3.00
2013,05,01,06,56,3.10
2013,05,01,06,57,3.20
2013,05,01,06,58,3.20
2013,05,01,06,59,3.30
2013,05,01,07,00,3.40
2013,05,01,07,01,3.50
2013,05,01,07,02,3.70
2013,05,01,07,03,3.80
2013,05,01,07,04,3.90
2013,05,01,07,05,4.00
2013,05,01,07,06,4.00
2013,05,01,07,07,4.10
2013,05,01,07,08,4.30
2013,05,01,07,09,4.50
2013,05,01,07,10,4.70
2013,05,01,07,11,4.80
2013,05,01,07,12,4.70
2013,05,01,07,13,4.80
2013,05,01,07,14,5.00
2013,05,01,07,15,5.30
2013,05,01,07,16,5.50
2013,05,01,07,17,5.70
2013,05,01,07,18,5.80
2013,05,01,07,19,5.90
2013,05,01,07,20,6.00
2013,05,01,07,21,6.10
2013,05,01,07,22,6.20
2013,05,01,07,23,6.30
2013,05,01,07,24,6.40
2013,05,01,07,25,6.60
2013,05,01,07,26,6.70
2013,05,01,07,27,6.80
2013,05,01,07,28,6.80
2013,05,01,07,29,7.00
2013,05,01,07,30,7.00
2013,05,01,07,31,7.10
2013,05,01,07,32,7.20
2013,05,01,07,33,7.20
2013,05,01,07,34,7.30
2013,05,01,07,35,7.30
2013,05,01,07,36,7.30
2013,05,01,07,37,7.40
2013,05,01,07,38,7.40
2013,05,01,07,39,7.40
2013,05,01,07,40,7.50
2013,05,01,07,41,7.50
2013,05,01,07,42,7.60
2013,05,01,07,43,7.70
2013,05,01,07,44,7.70
2013,05,01,07,45,7.70
2013,05,01,07,46,7.80
2013,05,01,07,47,7.80
2013,05,01,07,48,7.80
2013,05,01,07,49,7.80
2013,05,01,07,50,7.80
2013,05,01,07,51,7.80
2013,05,01,07,52,7.80
2013,05,01,07,53,7.90
2013,05,01,07,54,8.00
2013,05,01,07,55,8.00
2013,05,01,07,56,8.00
2013,05,01,07,57,8.10
2013,05,01,07,58,8.20
2013,05,01,07,59,8.20
2013,05,01,08,00,8.20
2013,05,01,08,01,8.20
2013,05,01,08,02,8.20
2013,05,01,08,03,8.20
2013,05,01,08,04,8.20
2013,05,01,08,05,8.20
2013,05,01,08,06,8.30
2013,05,01,08,07,8.40
2013,05,01,08,08,8.40
2013,05,01,08,09,8.40
2013,05,01,08,10,8.50
2013,05,01,08,11,8.50
2013,05,01,08,12,8.60
2013,05,01,08,13,8.60
2013,05,01,08,14,8.60
2013,05,01,08,15,8.50
2013,05,01,08,16,8.50
2013,05,01,08,17,8.70
2013,05,01,08,18,8.70
2013,05,01,08,19,8.80
2013,05,01,08,20,8.90
2013,05,01,08,21,8.90
2013,05,01,08,22,8.90
2013,05,01,08,23,9.00
2013,05,01,08,24,9.10
2013,05,01,08,25,9.10
2013,05,01,08,26,9.10
2013,05,01,08,27,9.10
2013,05,01,08,28,9.10
2013,05,01,08,29,9.10
2013,05,01,08,30,9.00
2013,05,01,08,31,8.90
2013,05,01,08,32,8.80
2013,05,01,08,33,8.70
2013,05,01,08,34,8.70
2013,05,01,08,35,8.70
2013,05,01,08,36,8.70
2013,05,01,08,37,8.70
2013,05,01,08,38,8.70
2013,05,01,08,39,8.70
2013,05,01,08,40,8.60
2013,05,01,08,41,8.50
2013,05,01,08,42,8.40
2013,05,01,08,43,8.30
2013,05,01,08,44,8.30
2013,05,01,08,45,8.30
2013,05,01,08,46,8.40
2013,05,01,08,47,8.40
2013,05,01,08,48,8.40
2013,05,01,08,49,8.40
2013,05,01,08,50,8.40
2013,05,01,08,51,8.40
2013,05,01,08,52,8.50
2013,05,01,08,53,8.50
2013,05,01,08,54,8.40
2013,05,01,08,55,8.40
2013,05,01,08,56,8.40
2013,05,01,08,57,8.40
2013,05,01,08,58,8.50
2013,05,01,08,59,8.50
2013,05,01,09,00,8.50
2013,05,01,09,01,8.60
2013,05,01,09,02,8.50
2013,05,01,09,03,8.50
2013,05,01,09,04,8.60
2013,05,01,09,05,8.70
2013,05,01,09,06,8.70
2013,05,01,09,07,8.70
2013,05,01,09,08,8.70
2013,05,01,09,09,8.80
2013,05,01,09,10,8.80
2013,05,01,09,11,8.70
2013,05,01,09,12,8.70
2013,05,01,09,13,8.70
2013,05,01,09,14,8.70
2013,05,01,09,15,8.70
2013,05,01,09,16,8.70
2013,05,01,09,17,8.70
2013,05,01,09,18,8.80
2013,05,01,09,19,8.90
2013,05,01,09,20,8.90
2013,05,01,09,21,9.00
2013,05,01,09,22,9.00
2013,05,01,09,23,9.10
2013,05,01,09,24,9.00
2013,05,01,09,25,9.10
2013,05,01,09,26,9.20
2013,05,01,09,27,9.20
2013,05,01,09,28,9.20
2013,05,01,09,29,9.20
2013,05,01,09,30,9.20
2013,05,01,09,31,9.20
2013,05,01,09,32,9.20
2013,05,01,09,33,9.20
2013,05,01,09,34,9.20
2013,05,01,09,35,9.20
2013,05,01,09,36,9.20
2013,05,01,09,37,9.30
2013,05,01,09,38,9.40
2013,05,01,09,39,9.40
2013,05,01,09,40,9.50
2013,05,01,09,41,9.60
2013,05,01,09,42,9.60
2013,05,01,09,43,9.50
2013,05,01,09,44,9.50
2013,05,01,09,45,9.50
2013,05,01,09,46,9.50
2013,05,01,09,47,9.60
2013,05,01,09,48,9.70
2013,05,01,09,49,9.70
2013,05,01,09,50,9.60
2013,05,01,09,51,9.40
2013,05,01,09,52,9.50
2013,05,01,09,53,9.60
2013,05,01,09,54,9.60
2013,05,01,09,55,9.60
2013,05,01,09,56,9.50
2013,05,01,09,57,9.40
2013,05,01,09,58,9.30
2013,05,01,09,59,9.30
2013,05,01,10,00,9.40
2013,05,01,10,01,9.40
2013,05,01,10,02,9.20
2013,05,01,10,03,9.30
2013,05,01,10,04,9.40
2013,05,01,10,05,9.30
2013,05,01,10,06,9.20
2013,05,01,10,07,9.30
2013,05,01,10,08,9.20
2013,05,01,10,09,9.20
2013,05,01,10,10,9.30
2013,05,01,10,11,9.50
2013,05,01,10,12,9.70
2013,05,01,10,13,9.60
2013,05,01,10,14,9.50
2013,05,01,10,15,9.50
2013,05,01,10,16,9.50
2013,05,01,10,17,9.40
2013,05,01,10,18,9.30
2013,05,01,10,19,9.20
2013,05,01,10,20,9.20
2013,05,01,10,21,9.20
2013,05,01,10,22,9.20
2013,05,01,10,23,9.20
2013,05,01,10,24,9.30
2013,05,01,10,25,9.50
2013,05,01,10,26,9.60
2013,05,01,10,27,9.50
2013,05,01,10,28,9.40
2013,05,01,10,29,9.40
2013,05,01,10,30,9.30
2013,05,01,10,31,9.40
2013,05,01,10,32,9.50
2013,05,01,10,33,9.70
2013,05,01,10,34,9.70
2013,05,01,10,35,9.80
2013,05,01,10,36,9.80
2013,05,01,10,37,9.80
2013,05,01,10,38,9.90
2013,05,01,10,39,9.80
2013,05,01,10,40,9.80
2013,05,01,10,41,9.90
2013,05,01,10,42,9.90
2013,05,01,10,43,9.90
2013,05,01,10,44,9.90
2013,05,01,10,45,9.90
2013,05,01,10,46,9.90
2013,05,01,10,47,9.90
2013,05,01,10,48,9.90
2013,05,01,10,49,9.90
2013,05,01,10,50,10.00
2013,05,01,10,51,10.10
2013,05,01,10,52,10.10
2013,05,01,10,53,10.10
2013,05,01,10,54,10.10
2013,05,01,10,55,10.20
2013,05,01,10,56,10.20
2013,05,01,10,57,10.10
2013,05,01,10,58,10.10
2013,05,01,10,59,10.10
2013,05,01,11,00,10.00
2013,05,01,11,01,9.90
2013,05,01,11,02,9.80
2013,05,01,11,03,9.80
2013,05,01,11,04,9.90
2013,05,01,11,05,10.00
2013,05,01,11,06,10.10
2013,05,01,11,07,10.00
2013,05,01,11,08,9.90
2013,05,01,11,09,9.90
2013,05,01,11,10,9.90
2013,05,01,11,11,9.90
2013,05,01,11,12,9.90
2013,05,01,11,13,9.90
2013,05,01,11,14,9.80
2013,05,01,11,15,9.80
2013,05,01,11,16,9.80
2013,05,01,11,17,9.70
2013,05,01,11,18,9.70
2013,05,01,11,19,9.80
2013,05,01,11,20,9.90
2013,05,01,11,21,9.80
2013,05,01,11,22,9.80
2013,05,01,11,23,9.80
2013,05,01,11,24,9.70
2013,05,01,11,25,9.70
2013,05,01,11,26,9.70
2013,05,01,11,27,9.90
2013,05,01,11,28,9.90
2013,05,01,11,29,9.80
2013,05,01,11,30,9.70
2013,05,01,11,31,9.80
2013,05,01,11,32,10.00
2013,05,01,11,33,10.10
2013,05,01,11,34,10.10
2013,05,01,11,35,10.10
2013,05,01,11,36,10.20
2013,05,01,11,37,10.30
2013,05,01,11,38,10.40
2013,05,01,11,39,10.50
2013,05,01,11,40,10.60
2013,05,01,11,41,10.50
2013,05,01,11,42,10.60
2013,05,01,11,43,10.60
2013,05,01,11,44,10.60
2013,05,01,11,45,10.60
2013,05,01,11,46,10.60
2013,05,01,11,47,10.40
2013,05,01,11,48,10.40
2013,05,01,11,49,10.30
2013,05,01,11,50,10.20
2013,05,01,11,51,10.30
2013,05,01,11,52,10.40
2013,05,01,11,53,10.50
2013,05,01,11,54,10.50
2013,05,01,11,55,10.40
2013,05,01,11,56,10.60
2013,05,01,11,57,10.60
2013,05,01,11,58,10.60
2013,05,01,11,59,10.70
2013,05,01,12,00,10.80
2013,05,01,12,01,10.80
2013,05,01,12,02,10.80
2013,05,01,12,03,10.90
2013,05,01,12,04,10.90
2013,05,01,12,05,11.00
2013,05,01,12,06,11.10
2013,05,01,12,07,11.10
2013,05,01,12,08,11.20
2013,05,01,12,09,11.20
2013,05,01,12,10,11.30
2013,05,01,12,11,11.40
2013,05,01,12,12,11.60
2013,05,01,12,13,11.80
2013,05,01,12,14,11.90
2013,05,01,12,15,12.00
2013,05,01,12,16,12.10
2013,05,01,12,17,12.20
2013,05,01,12,18,12.30
2013,05,01,12,19,12.30
2013,05,01,12,20,12.30
2013,05,01,12,21,12.10
2013,05,01,12,22,11.90
2013,05,01,12,23,11.70
2013,05,01,12,24,11.50
2013,05,01,12,25,11.30
2013,05,01,12,26,11.10
2013,05,01,12,27,11.10
2013,05,01,12,28,11.10
2013,05,01,12,29,11.10
2013,05,01,12,30,11.10
2013,05,01,12,31,11.10
2013,05,01,12,32,11.10
2013,05,01,12,33,11.10
2013,05,01,12,34,11.10
2013,05,01,12,35,11.10
2013,05,01,12,36,11.10
2013,05,01,12,37,11.10
2013,05,01,12,38,11.10
2013,05,01,12,39,11.00
2013,05,01,12,40,10.90
2013,05,01,12,41,10.90
2013,05,01,12,42,11.10
2013,05,01,12,43,11.20
2013,05,01,12,44,11.30
2013,05,01,12,45,11.50
2013,05,01,12,46,11.60
2013,05,01,12,47,11.70
2013,05,01,12,48,11.70
2013,05,01,12,49,11.70
2013,05,01,12,50,11.70
2013,05,01,12,51,11.70
2013,05,01,12,52,11.70
2013,05,01,12,53,11.70
2013,05,01,12,54,11.70
2013,05,01,12,55,11.60
2013,05,01,12,56,11.60
2013,05,01,12,57,11.60
2013,05,01,12,58,11.60
2013,05,01,12,59,11.40
2013,05,01,13,00,11.40
2013,05,01,13,01,11.40
2013,05,01,13,02,11.40
2013,05,01,13,03,11.40
2013,05,01,13,04,11.40
2013,05,01,13,05,11.50
2013,05,01,13,06,11.70
2013,05,01,13,07,11.90
2013,05,01,13,08,12.00
2013,05,01,13,09,12.00
2013,05,01,13,10,11.80
2013,05,01,13,11,11.60
2013,05,01,13,12,11.40
2013,05,01,13,13,11.30
2013,05,01,13,14,11.10
2013,05,01,13,15,11.00
2013,05,01,13,16,10.90
2013,05,01,13,17,10.90
2013,05,01,13,18,10.90
2013,05,01,13,19,11.00
2013,05,01,13,20,11.10
2013,05,01,13,21,11.40
2013,05,01,13,22,11.50
2013,05,01,13,23,11.60
2013,05,01,13,24,11.60
2013,05,01,13,25,11.50
2013,05,01,13,26,11.50
2013,05,01,13,27,11.60
2013,05,01,13,28,11.60
2013,05,01,13,29,11.80
2013,05,01,13,30,11.80
2013,05,01,13,31,11.80
2013,05,01,13,32,11.90
2013,05,01,13,33,12.00
2013,05,01,13,34,12.00
2013,05,01,13,35,12.10
2013,05,01,13,36,12.00
2013,05,01,13,37,11.90
2013,05,01,13,38,11.90
2013,05,01,13,39,11.90
2013,05,01,13,40,11.90
2013,05,01,13,41,11.90
2013,05,01,13,42,11.80
2013,05,01,13,43,11.80
2013,05,01,13,44,11.80
2013,05,01,13,45,11.80
2013,05,01,13,46,11.80
2013,05,01,13,47,11.80
2013,05,01,13,48,11.80
2013,05,01,13,49,11.80
2013,05,01,13,50,11.80
2013,05,01,13,51,11.80
2013,05,01,13,52,11.80
2013,05,01,13,53,11.80
2013,05,01,13,54,11.70
2013,05,01,13,55,11.70
2013,05,01,13,56,11.80
2013,05,01,13,57,11.80
2013,05,01,13,58,11.70
2013,05,01,13,59,11.60
2013,05,01,14,00,11.40
2013,05,01,14,01,11.40
2013,05,01,14,02,11.40
2013,05,01,14,03,11.40
2013,05,01,14,04,11.50
2013,05,01,14,05,11.60
2013,05,01,14,06,11.80
2013,05,01,14,07,11.80
2013,05,01,14,08,11.70
2013,05,01,14,09,11.70
2013,05,01,14,10,11.70
2013,05,01,14,11,11.80
2013,05,01,14,12,11.80
2013,05,01,14,13,11.90
2013,05,01,14,14,12.00
2013,05,01,14,15,12.00
2013,05,01,14,16,12.00
2013,05,01,14,17,12.00
2013,05,01,14,18,11.90
2013,05,01,14,19,11.90
2013,05,01,14,20,11.80
2013,05,01,14,21,11.70
2013,05,01,14,22,11.60
2013,05,01,14,23,11.60
2013,05,01,14,24,11.70
2013,05,01,14,25,11.70
2013,05,01,14,26,11.70
2013,05,01,14,27,11.80
2013,05,01,14,28,11.90
2013,05,01,14,29,12.00
2013,05,01,14,30,12.00
2013,05,01,14,31,11.90
2013,05,01,14,32,11.80
2013,05,01,14,33,11.80
2013,05,01,14,34,11.80
2013,05,01,14,35,11.80
2013,05,01,14,36,11.80
2013,05,01,14,37,11.80
2013,05,01,14,38,11.80
2013,05,01,14,39,11.90
2013,05,01,14,40,12.10
2013,05,01,14,41,12.20
2013,05,01,14,42,12.30
2013,05,01,14,43,12.30
2013,05,01,14,44,12.20
2013,05,01,14,45,12.20
2013,05,01,14,46,12.30
2013,05,01,14,47,12.30
2013,05,01,14,48,12.50
2013,05,01,14,49,12.60
2013,05,01,14,50,12.60
2013,05,01,14,51,12.60
2013,05,01,14,52,12.70
2013,05,01,14,53,12.80
2013,05,01,14,54,12.90
2013,05,01,14,55,13.00
2013,05,01,14,56,13.10
2013,05,01,14,57,13.00
2013,05,01,14,58,12.90
2013,05,01,14,59,12.80
2013,05,01,15,00,12.70
2013,05,01,15,01,12.60
2013,05,01,15,02,12.50
2013,05,01,15,03,12.40
2013,05,01,15,04,12.40
2013,05,01,15,05,12.50
2013,05,01,15,06,12.50
2013,05,01,15,07,12.40
2013,05,01,15,08,12.50
2013,05,01,15,09,12.60
2013,05,01,15,10,12.50
2013,05,01,15,11,12.40
2013,05,01,15,12,12.30
2013,05,01,15,13,12.40
2013,05,01,15,14,12.40
2013,05,01,15,15,12.40
2013,05,01,15,16,12.50
2013,05,01,15,17,12.70
2013,05,01,15,18,12.80
2013,05,01,15,19,13.00
2013,05,01,15,20,13.00
2013,05,01,15,21,12.90
2013,05,01,15,22,12.90
2013,05,01,15,23,12.90
2013,05,01,15,24,12.90
2013,05,01,15,25,13.00
2013,05,01,15,26,13.10
2013,05,01,15,27,13.10
2013,05,01,15,28,13.10
2013,05,01,15,29,13.20
2013,05,01,15,30,13.30
2013,05,01,15,31,13.20
2013,05,01,15,32,13.10
2013,05,01,15,33,13.10
2013,05,01,15,34,13.20
2013,05,01,15,35,13.20
2013,05,01,15,36,13.10
2013,05,01,15,37,13.20
2013,05,01,15,38,13.30
2013,05,01,15,39,13.30
2013,05,01,15,40,13.30
2013,05,01,15,41,13.20
2013,05,01,15,42,13.20
2013,05,01,15,43,13.10
2013,05,01,15,44,13.10
2013,05,01,15,45,13.20
2013,05,01,15,46,13.30
2013,05,01,15,47,13.30
2013,05,01,15,48,13.30
2013,05,01,15,49,13.30
2013,05,01,15,50,13.30
2013,05,01,15,51,13.30
2013,05,01,15,52,13.30
2013,05,01,15,53,13.40
2013,05,01,15,54,13.40
2013,05,01,15,55,13.40
2013,05,01,15,56,13.30
2013,05,01,15,57,13.30
2013,05,01,15,58,13.30
2013,05,01,15,59,13.30
2013,05,01,16,00,13.30
2013,05,01,16,01,13.30
2013,05,01,16,02,13.30
2013,05,01,16,03,13.40
2013,05,01,16,04,13.40
2013,05,01,16,05,13.50
2013,05,01,16,06,13.60
2013,05,01,16,07,13.70
2013,05,01,16,08,13.70
2013,05,01,16,09,13.70
2013,05,01,16,10,13.70
2013,05,01,16,11,13.60
2013,05,01,16,12,13.60
2013,05,01,16,13,13.50
2013,05,01,16,14,13.30
2013,05,01,16,15,13.20
2013,05,01,16,16,13.10
2013,05,01,16,17,13.00
2013,05,01,16,18,13.00
2013,05,01,16,19,13.00
2013,05,01,16,20,13.10
2013,05,01,16,21,13.10
2013,05,01,16,22,13.10
2013,05,01,16,23,13.20
2013,05,01,16,24,13.20
2013,05,01,16,25,13.30
2013,05,01,16,26,13.30
2013,05,01,16,27,13.20
2013,05,01,16,28,13.10
2013,05,01,16,29,13.10
2013,05,01,16,30,13.10
2013,05,01,16,31,13.10
2013,05,01,16,32,13.10
2013,05,01,16,33,13.00
2013,05,01,16,34,12.90
2013,05,01,16,35,12.90
2013,05,01,16,36,12.80
2013,05,01,16,37,12.80
2013,05,01,16,38,12.70
2013,05,01,16,39,12.70
2013,05,01,16,40,12.80
2013,05,01,16,41,12.80
2013,05,01,16,42,12.80
2013,05,01,16,43,12.80
2013,05,01,16,44,12.80
2013,05,01,16,45,12.80
2013,05,01,16,46,12.90
2013,05,01,16,47,12.90
2013,05,01,16,48,13.00
2013,05,01,16,49,13.10
2013,05,01,16,50,13.20
2013,05,01,16,51,13.30
2013,05,01,16,52,13.30
2013,05,01,16,53,13.30
2013,05,01,16,54,13.30
2013,05,01,16,55,13.30
2013,05,01,16,56,13.30
2013,05,01,16,57,13.40
2013,05,01,16,58,13.40
2013,05,01,16,59,13.40
2013,05,01,17,00,13.40
2013,05,01,17,01,13.50
2013,05,01,17,02,13.60
2013,05,01,17,03,13.60
2013,05,01,17,04,13.60
2013,05,01,17,05,13.60
2013,05,01,17,06,13.60
2013,05,01,17,07,13.60
2013,05,01,17,08,13.70
2013,05,01,17,09,13.70
2013,05,01,17,10,13.80
2013,05,01,17,11,13.80
2013,05,01,17,12,13.90
2013,05,01,17,13,13.80
2013,05,01,17,14,13.70
2013,05,01,17,15,13.60
2013,05,01,17,16,13.60
2013,05,01,17,17,13.60
2013,05,01,17,18,13.70
2013,05,01,17,19,13.60
2013,05,01,17,20,13.60
2013,05,01,17,21,13.60
2013,05,01,17,22,13.60
2013,05,01,17,23,13.60
2013,05,01,17,24,13.70
2013,05,01,17,25,13.70
2013,05,01,17,26,13.70
2013,05,01,17,27,13.70
2013,05,01,17,28,13.70
2013,05,01,17,29,13.70
2013,05,01,17,30,13.70
2013,05,01,17,31,13.70
2013,05,01,17,32,13.80
2013,05,01,17,33,13.80
2013,05,01,17,34,13.90
2013,05,01,17,35,13.90
2013,05,01,17,36,13.90
2013,05,01,17,37,13.90
2013,05,01,17,38,13.90
2013,05,01,17,39,13.90
2013,05,01,17,40,13.80
2013,05,01,17,41,13.70
2013,05,01,17,42,13.70
2013,05,01,17,43,13.70
2013,05,01,17,44,13.80
2013,05,01,17,45,13.80
2013,05,01,17,46,13.70
2013,05,01,17,47,13.70
2013,05,01,17,48,13.70